www.pogodaiklimat.ru

Погода и климат >> Архив погоды >> Индия >> Западная Бенгалия >> Колката


ПОГОДА в Колкате

  • Прогноз погоды в Колкате
  • Монитор погоды в Колкате

АРХИВ ПОГОДЫ в Колкате

Время (UTC), дата Ветер
(напр.,м/с)
 
Видим.   Явления Облачность Т
(С)
Тd
(С)
f
(%)
Тe
(С)
Тes
(С)
Комфортность P
(гПа)
Po
(гПа)
Тmin
(С)
Tmax
(С)
R
(мм)
R24
(мм)
S
(см)
21 18.06 ЮВ 1 4000 м 8/5 600 м
[Sc Ac trans]
+28.4 +27.3 94 +45 +45 опасность
перегрева
999.7 999.0 15
00 19.06 ЮВ 2 4000 м 6/4 600 м
[Cb calv Ac trans]
+29.2 +28.4 95 +49 +49 опасность
перегрева
999.1 998.4 15
03 19.06 В 2 4000 м 4/3 600 м
[Sc diur, vesp Ac trans]
+32.0 +29.0 84 +55 +63 опасность
перегрева
1000.3 999.6 +26.4 15
06 19.06 СВ 1 4000 м 6/6 600 м
[Sc diur, vesp]
+35.6 +28.9 68 +58 +70 опасность
перегрева
1000.0 999.3
09 19.06 В 1 4000 м 3/3 600 м
[Sc diur, vesp]
+37.2 +28.0 60 +58 +69 опасность
перегрева
997.2 996.5
12 19.06 ЮЗ 5 4000 м 10/6 600 м
[Cb calv Ac trans]
+34.0 +28.3 72 +55 +55 опасность
перегрева
998.8 998.1 +37.6
15 19.06 ЮЗ 1 4000 м в посл. час гроза {дождь} 10/6 600 м
[Cb calv As op]
+28.6 +27.8 95 +47 +47 опасность
перегрева
1000.3 999.6 14
18 19.06 штиль 0 4000 м {гроза, дождь} 6/4 600 м
[Sc diur, vesp Ac trans]
+27.6 +26.8 95 +43 +43 опасность
перегрева
1000.7 1000.0 14
21 19.06 штиль 0 4000 м 6/3 600 м
[Sc Ac trans]
+27.8 +26.7 94 +43 +43 опасность
перегрева
1000.3 999.6 14
00 20.06 штиль 0 4000 м 6/3 600 м
[Sc Ac trans]
+28.0 +26.6 92 +43 +43 опасность
перегрева
1000.8 1000.1 14
03 20.06 Ю 1 4000 м 6/3 600 м
[Sc diur, vesp Ac trans]
+31.6 +26.0 72 +47 +54 опасность
перегрева
1001.9 1001.2 +26.7 14
06 20.06 В 1 4000 м 5/4 600 м
[Sc diur, vesp Ac trans]
+35.2 +27.9 66 +56 +70 опасность
перегрева
1001.7 1001.0
09 20.06 ЮВ 2 4000 м 5/4 600 м
[Cb calv Ac trans]
+35.0 +27.9 67 +56 +63 опасность
перегрева
999.7 999.0
12 20.06 ЮЗ 2 4000 м 8/5 600 м
[Cb calv Ac trans]
+33.0 +27.5 73 +52 +53 опасность
перегрева
998.9 998.2 +35.9
15 20.06 Ю 2 4000 м гроза, ливневой дождь 10/6 600 м
[Cb cap As op]
+30.4 +28.2 88 +51 +51 опасность
перегрева
1001.6 1000.9 0.2
18 20.06 ЮЗ 1 4000 м {гроза, дождь} 8/4 600 м
[Sc diur, vesp Ac trans]
+30.0 +26.9 84 +47 +47 опасность
перегрева
1001.8 1001.1 0.2
21 20.06 С 1 4000 м 8/5 600 м
[Sc diur, vesp Ac trans]
+28.6 +25.8 85 +43 +43 опасность
перегрева
1000.1 999.4 0.2
00 21.06 С 1 4000 м 9/5 600 м
[Sc diur, vesp Ac trans Ci fib]
+29.0 +27.3 91 +47 +47 опасность
перегрева
1000.7 1000.0 0.2
03 21.06 СВ 2 4000 м {дождь} 9/5 600 м
[Cb calv Ac trans]
+30.4 +27.7 86 +50 +53 опасность
перегрева
1001.8 1001.1 +28.1 0.6
06 21.06 Ю 2 4000 м {дождь} 8/5 600 м
[Cb calv Ac trans]
+30.0 +27.8 88 +49 +56 опасность
перегрева
1001.3 1000.6 0.2
09 21.06 В 3 4000 м 9/6 600 м
[Cb calv As op]
+32.0 +27.6 78 +52 +53 опасность
перегрева
998.9 998.2 0.2
12 21.06 В 2 4000 м {дождь} 6/4 600 м
[Cb calv Ac trans]
+30.8 +27.2 81 +49 +49 опасность
перегрева
998.6 997.9 +32.3 1
15 21.06 Ю 2 4000 м {дождь} 9/6 600 м
[Sc diur, vesp As op]
+29.2 +27.0 88 +46 +46 опасность
перегрева
1000.7 1000.0 3
18 21.06 ЮВ 2 4000 м {дождь} 3/3 600 м
[Sc diur, vesp]
+28.6 +26.6 89 +44 +44 опасность
перегрева
1001.5 1000.8 3
21 21.06 ЮВ 2 4000 м 9/4 600 м
[Sc diur, vesp As op]
+28.2 +26.2 89 +43 +43 опасность
перегрева
1000.9 1000.2 3
00 22.06 ЮВ 1 4000 м слаб. дождь 9/5 300 м
[Frnb As op]
+28.0 +26.0 89 +42 +42 опасность
перегрева
1001.5 1000.8 5
03 22.06 Ю 1 4000 м слаб. дождь 8/5 600 м
[Cb calv Ac trans]
+27.8 +26.4 92 +42 +47 опасность
перегрева
1003.0 1002.3 +27.0 9
06 22.06 ЮЗ 4 4000 м {дождь} 4/3 600 м
[Sc diur, vesp Ac trans]
+33.0 +26.0 67 +49 +58 опасность
перегрева
1002.7 1002.0 0.1
09 22.06 ЮЗ 3 4000 м 6/5 600 м
[Sc diur, vesp Ac trans]
+32.0 +27.0 75 +50 +55 опасность
перегрева
1001.2 1000.5 0.1
12 22.06 ЮЗ 2 4000 м 4/4 600 м
[Sc diur, vesp]
+31.2 +26.5 76 +48 +48 опасность
перегрева
1001.2 1000.5 +33.6 0.1
15 22.06 Ю 1 4000 м ясно +30.2 +26.6 81 +47 +47 опасность
перегрева
1003.4 1002.7 0.1
18 22.06 Ю 1 4000 м ясно +29.4 +26.6 85 +45 +45 опасность
перегрева
1003.5 1002.8 0.1
21 22.06 ЮВ 1 4000 м ясно +28.8 +26.9 89 +45 +45 опасность
перегрева
1002.6 1001.9 0.1
00 23.06 ЮВ 2 4000 м ясно +28.4 +26.7 91 +44 +45 опасность
перегрева
1003.3 1002.6 0.1
03 23.06 Ю 2 4000 м 5/4 600 м
[Sc diur, vesp Ac trans]
+31.4 +26.7 76 +48 +55 опасность
перегрева
1004.1 1003.4 +28.1 0.1
06 23.06 ЮЗ 1 4000 м в посл. час дождь 6/5 600 м
[Sc diur, vesp As op]
+28.8 +27.7 94 +47 +59 опасность
перегрева
1003.9 1003.2 12
09 23.06 Ю 3 4000 м {дождь} 6/5 600 м
[Sc diur, vesp Ac trans]
+34.2 +27.1 67 +53 +57 опасность
перегрева
1002.2 1001.5 12
12 23.06 ЮЗ 2 4000 м {дождь} 5/1 600 м
[Sc As op]
+31.4 +26.7 76 +48 +49 опасность
перегрева
1002.2 1001.5 +34.3 13
15 23.06 ЮЗ 2 4000 м 4/1 600 м
[Sc As op]
+30.4 +26.5 80 +47 +47 опасность
перегрева
1004.2 1003.5 13
18 23.06 Ю 2 4000 м ясно +29.6 +27.1 86 +47 +47 опасность
перегрева
1003.8 1003.1 13
21 23.06 Ю 2 4000 м 4/1 600 м
[Sc As op]
+29.0 +27.1 90 +46 +46 опасность
перегрева
1003.7 1003.0 13
00 24.06 Ю 1 4000 м 3/1 600 м
[Sc As op]
+28.6 +26.9 91 +45 +45 опасность
перегрева
1004.7 1004.0 13
03 24.06 ЮЗ 3 4000 м 6/5 600 м
[Sc diur, vesp Ac trans]
+32.0 +26.7 74 +49 +54 опасность
перегрева
1006.0 1005.3 +28.1 13
06 24.06 З 3 4000 м слаб. дождь {морось} 9/5 600 м
[Cb calv Ac As]
+34.8 +27.1 64 +53 +57 опасность
перегрева
1005.4 1004.7 0.0
09 24.06 ЮЗ 2 4000 м {морось} 9/6 600 м
[Cb calv Ac trans]
+35.0 +27.9 67 +56 +58 опасность
перегрева
1003.1 1002.4 0.0
12 24.06 Ю 2 4000 м {морось} 4/4 600 м
[Sc diur, vesp]
+33.6 +27.9 72 +54 +54 опасность
перегрева
1002.2 1001.5 +36.2 0.0
15 24.06 ЮЗ 2 4000 м 3/1 600 м
[Sc diur, vesp Ci fib]
+31.0 +27.7 83 +51 +51 опасность
перегрева
1004.2 1003.5 0.0
18 24.06 Ю 2 4000 м 1/1 600 м
[Sc diur, vesp]
+30.0 +27.8 88 +49 +49 опасность
перегрева
1004.5 1003.8 0.0
21 24.06 ЮЗ 2 4000 м 1/1 600 м
[Sc diur, vesp]
+29.6 +26.8 85 +46 +46 опасность
перегрева
1004.0 1003.3 0.0
00 25.06 З 2 4000 м 3/1 600 м
[Sc Ci fib]
+29.2 +27.3 90 +47 +47 опасность
перегрева
1004.8 1004.1 0.0
03 25.06 ЮЗ 2 4000 м 9/5 600 м
[Sc diur, vesp Ac trans]
+32.0 +27.0 75 +50 +53 опасность
перегрева
1005.6 1004.9 +28.6 0.0
06 25.06 ЮЗ 3 4000 м 8/5 600 м
[Sc diur, vesp As op]
+34.8 +27.7 67 +55 +60 опасность
перегрева
1005.3 1004.6
09 25.06 ЮЗ 1 4000 м 6/4 600 м
[Sc diur, vesp Ac As]
+35.4 +28.4 67 +57 +64 опасность
перегрева
1003.5 1002.8
12 25.06 ЮЗ 3 4000 м 4/0 2000 м
[Ac trans]
+33.6 +27.0 68 +51 +52 опасность
перегрева
1002.2 1001.5 +36.1
15 25.06 Ю 4 4000 м ясно +30.9 +27.2 81 +49 +49 опасность
перегрева
1003.1 1002.4

 

Местоположение метеостанции Колката (Западная Бенгалия, Индия): широта 22.53 долгота 88.33 высота над уровнем моря 6 м.

В архиве по умолчанию представлена погода в Колкате за последнюю неделю. Архивные данные за месяц целиком и за предыдущие месяцы, начиная с января 2011 года, Вы можете получить, выбрав интересующий диапазон дат из раскрывающегося списка и нажав кнопку "Ввод!".


*Определитесь, кто Вы:
робот инопланетянин человек

Внимание! Время в таблицах - всемирное. Для получения местного времени необходимо прибавить поправку, которая равна 5.5 ч.

Смотрите также архив погоды в соседних городах и на ближайших метеорологических станциях:

Погода в Колката аэропорту (Западная Бенгалия, Индия) (18 км)
Погода в Улуберии (Западная Бенгалия, Индия) (39 км)
Погода в Даймонд Харбор (Западная Бенгалия, Индия) (41 км)
Погода в Каннинге (Западная Бенгалия, Индия) (47 км)
Погода в Багати (Западная Бенгалия, Индия) (50 км)
Погода в Бейсирхэте (Западная Бенгалия, Индия) (57 км)
Погода в Халдии (Западная Бенгалия, Индия) (62 км)
Погода в Саткхире (Бангладеш) (80 км)
Погода в Бардхамане (Западная Бенгалия, Индия) (92 км)
Погода в Кришнанагаре (Западная Бенгалия, Индия) (99 км)

Пояснения к столбцам:

Ветер - указаны скорость ветра в м/с - средняя за 10 мин, порывы в срок и между сроками (в фигурных скобках) и направление, откуда дует ветер: С - северный, СВ - северо-восточный, В - восточный, ЮВ - юго-восточный, Ю - южный, ЮЗ - юго-западный, З - западный, СЗ - северо-западный.
Видимость - горизонтальная дальность видимости в метрах или километрах. При видимости от 1 до 10 км при отсутствии осадков обычно наблюдается дымка, при ухудшении видимости до 1 км и менее - туман. В сухую погоду видимость может ухудшаться дымом, пылью или мглою.
Явления - указаны атмосферные явления, наблюдавшиеся в срок или в последний час перед сроком; фигурными скобками обозначены явления, наблюдавшиеся между сроками (за 1-3 часа до срока); квадратными скобками обозначены град или гололедные отложения с указанием их диаметра в мм.
Облачность - указаны через наклонную черту общая и нижняя облачность в баллах и высота нижней границы облаков в метрах; квадратными скобками обозначены формы облаков: Ci - перистые, Cs - перисто-слоистые, Cc - перисто-кучевые, Ac - высококучевые, As - высокослоистые, Sc - слоисто-кучевые, Ns - слоисто-дождевые, Cu - кучевые, Cb - кучево-дождевые. Подробнее классификацию облаков см. в Атласе облаков (PDF).
T - Температура воздуха - температура, измеренная на высоте 2 м над землей.
Td - Температура точки росы - температура, при понижении до которой содержащийся в воздухе водяной пар достигнет насыщения.
f - Относительная влажность воздуха - влажноcть воздуха, измеренная на высоте 2 м над землей.
Te - Эффективная температура - температура, которую ощущает одетый по сезону человек в тени. Характеристика душности погоды. При расчете учитывается влияние влажности воздуха и скорости ветра на теплоощущения человека.
Tes - Эффективная температура на солнце - температура, которую ощущает человек, с поправкой на солнечный нагрев. Характеристика знойности погоды. Зависит от высоты солнца над горизонтом, облачности и скорости ветра. Ночью, в пасмурную погоду, а также при ветре 12 м/с и более поправка равна нулю.
P - Атмосферное давление - приведенное к уровню моря атмосферное давление.
Po - Атмосферное давление - измеренное на уровне метеостанции атмосферное давление.
Tmin - Минимальная температура - минимум температуры воздуха на высоте 2 м над землей.
Tmax - Максимальная температура - максимум температуры воздуха на высоте 2 м над землей.
R - Количество осадков - Количество выпавших осадков за период времени, мм. При наведении курсора мыши на число - период времени, за который выпало указанное количество осадков.
R24 - Количество осадков - Количество выпавших осадков за 24 часа, мм.
S - Снежный покров - Высота снежного покрова, см. При наведении курсора мыши на число - состояние снежного покрова и степень покрытия местности в баллах.